Location: Goodsell Observatory
(44.4617°N, 93.1522°W)
Time: 03:54:58
(UTC-05:00)

Daily predictions for brighter satellites

Satellite Brightness Start Highest point End
(mag) Time Altitude Azimuth Time Altitude Azimuth Time Altitude Azimuth
Cosmos 2369 Rocket 2.8 00:02:35 10° NNW 00:07:06 50° WNW 00:07:06 50° WNW
CZ-2C R/B 3.3 00:16:37 10° N 00:21:04 52° NW 00:21:04 52° NW
ADEOS Rocket 4.2 00:16:54 10° NNE 00:21:59 34° ENE 00:21:59 34° ENE
Terra 4.1 00:27:10 17° WNW 00:27:10 17° WNW 00:29:22 10° NW
Cosmos 2173 Rocket 4.2 00:28:34 67° NNE 00:28:34 67° NNE 00:34:00 10° N
CZ-4C R/B 3.4 00:29:46 34° WNW 00:31:05 38° NW 00:36:51 10° NNE
USA 234 3.4 00:32:58 63° W 00:32:58 63° W 00:38:32 10° NW
Mayak 1.1 00:32:10 10° NNE 00:33:35 20° NNE 00:33:35 20° NNE
ATLAS 5 CENTAUR R/B 3.2 00:31:30 10° NW 00:35:41 43° WNW 00:35:41 43° WNW
Cosmos 2016 Rocket 4.3 00:43:22 60° NNE 00:43:22 60° NNE 00:48:21 10° N
SeaSat 1 3.7 00:48:48 39° NNW 00:48:48 39° NNW 00:51:56 10° NNW
Lacrosse 5 4.0 00:47:27 10° WNW 00:48:55 19° WNW 00:48:55 19° WNW
Tsikada Rocket 4.3 00:53:49 10° N 00:59:03 63° NNE 00:59:03 63° NNE
H-2A R/B 4.4 01:22:29 20° NW 01:22:29 20° NW 01:24:07 10° NNW
Cosmos 1943 Rocket 4.3 01:15:52 10° NW 01:17:39 16° WNW 01:17:39 16° WNW
COSMOS 2406 3.8 01:50:43 54° NNE 01:50:43 54° NNE 01:55:04 10° NNE
Cosmos 2233 Rocket 4.3 01:53:06 57° NW 01:53:06 57° NW 01:58:16 10° N
Cosmos 1464 Rocket 4.4 01:53:39 55° ENE 01:53:39 55° ENE 01:59:14 10° NNE
SL-16 R/B 4.3 01:51:48 18° E 01:54:47 26° ENE 01:59:48 10° N
Cosmos 1697 Rocket 4.3 01:51:04 10° N 01:56:02 30° NE 01:57:47 26° E
Cosmos 2082 Rocket 3.7 02:06:40 26° E 02:06:40 26° E 02:10:28 10° NE
ADEOS Rocket 3.9 02:02:16 10° N 02:08:43 42° WNW 02:08:56 42° WNW
BREEZE-M R/B 4.3 02:08:26 67° WNW 02:09:06 73° NNW 02:14:56 10° ENE
Mayak 1.5 02:09:28 10° NNW 02:10:12 12° NW 02:10:12 12° NW
Nadezhda 4 Rocket 4.5 02:07:38 10° N 02:13:37 51° ENE 02:14:00 50° E
Cosmos 1656 4.0 02:16:46 10° NNW 02:22:01 64° NNE 02:22:01 64° NNE
Resurs 1-4 Rocket 3.7 02:19:14 10° NE 02:23:27 24° E 02:23:32 24° E
Cosmos 909 Rocket 4.0 02:27:39 10° NNW 02:33:58 81° NE 02:34:29 74° ESE
NPP 4.4 02:29:39 10° NNE 02:34:34 43° E 02:34:34 43° E
SL-08 R/B 4.3 02:37:49 43° ENE 02:37:51 43° ENE 02:42:27 10° N
Meteor 1-13 Rocket 4.4 02:41:13 65° NNW 02:41:13 65° NNW 02:46:16 10° N
Cosmos 1833 Rocket 3.0 02:41:36 57° E 02:41:36 57° E 02:46:43 10° NNE
Cosmos 2369 4.0 02:36:41 10° NNW 02:41:17 60° NNW 02:41:17 60° NNW
Lacrosse 4 Rocket 2.9 02:38:32 10° NNW 02:41:23 36° N 02:41:23 36° N
CZ-4B R/B 4.4 02:47:22 12° NNW 02:47:22 12° NNW 02:47:43 10° NNW
AQUA 4.4 02:53:44 10° NNE 02:58:01 52° E 02:58:01 52° E
Iridium 4 Rocket 3.9 03:00:48 47° ENE 03:00:48 47° ENE 03:04:37 10° NNE
Gbstr 26 Del rocket 4.5 02:59:09 45° W 03:01:41 70° NNW 03:08:41 10° ENE
Cosmos 1607 3.9 03:04:44 73° WSW 03:05:23 83° NW 03:11:56 10° NE
APEX 4.4 03:06:54 67° S 03:07:45 78° ESE 03:13:39 10° NNE
Lacrosse 5 rocket 2.2 03:11:25 48° NE 03:11:25 48° NE 03:14:27 10° NE
Cosmos 2034 Rocket 4.2 03:10:41 52° W 03:10:54 52° WNW 03:17:00 10° N
ARIANE 5 R/B 3.5 03:07:40 10° NNE 03:12:36 40° E 03:13:42 36° SE
Cosmos 1867 4.0 03:09:44 10° NW 03:13:49 49° WNW 03:13:49 49° WNW
Cosmos 332 Rocket 4.2 03:16:28 53° NW 03:16:28 53° NW 03:20:40 10° NNE
Cosmos 371 Rocket 3.6 03:17:11 57° NW 03:17:11 57° NW 03:21:31 10° NNE
Okean 2 4.1 03:19:39 52° N 03:19:39 52° N 03:22:48 10° N
Meteor 1-23 Rocket 4.2 03:20:46 63° W 03:21:01 63° WNW 03:26:41 10° N
Cosmos 1092 Rocket 3.9 03:15:04 10° NNW 03:21:18 74° W 03:22:10 64° SSW
Meteor 2-4 Rocket 4.4 03:21:42 37° WNW 03:21:42 37° WNW 03:26:22 10° N
Helios 1A Rocket 4.3 03:23:02 10° NNE 03:26:49 32° E 03:27:23 31° ESE
CZ-2D R/B 2.0 03:22:31 10° NNE 03:27:57 85° ESE 03:28:39 68° S
Cosmos 1726 Rocket 4.4 03:30:02 10° N 03:34:13 46° ENE 03:35:31 35° SE
IRS P6 4.4 03:29:28 10° NNE 03:34:45 88° WNW 03:35:30 67° SSW
Cosmos 1980 Rocket 2.0 03:32:16 10° NNW 03:37:54 83° WSW 03:39:51 43° SSE
SL-16 R/B 2.5 03:36:53 53° SW 03:37:57 60° WSW 03:44:11 10° NNW
IRS-1D 3.5 03:33:52 10° NNE 03:39:05 89° ESE 03:40:00 62° SSW
Cosmos 1697 Rocket 3.1 03:34:47 10° NW 03:39:27 44° W 03:39:27 44° W
Exosat Rocket 4.5 03:34:44 10° NW 03:40:32 48° WSW 03:41:47 44° SW
IRS-1C 4.1 03:38:46 10° N 03:44:06 71° WNW 03:45:01 58° SW
Okean 1-7 Rocket 3.5 03:46:30 75° S 03:46:54 88° E 03:51:26 10° N
H-2A R/B 3.2 03:43:51 10° N 03:47:33 41° WNW 03:47:33 41° WNW
ADEOS II 3.6 03:43:45 10° NNE 03:48:23 30° E 03:52:21 13° SSE
Cosmos 1627 Rocket 4.5 03:43:00 10° NNW 03:49:19 65° W 03:51:17 44° SSW
Cosmos 2082 Rocket 2.6 03:48:31 42° W 03:49:36 47° WNW 03:55:03 10° NNE
ADEOS 4.2 03:45:41 10° NNE 03:50:47 51° E 03:53:17 28° SSE
SL-16 R/B 3.2 03:45:24 10° NNW 03:50:52 46° ENE 03:56:19 10° SE
Cosmos 304 Rocket 3.6 03:50:21 66° SW 03:50:58 78° WNW 03:55:49 10° NNE
UNKNOWN OBJECT B 3.5 03:49:20 10° NNE 03:53:04 46° E 03:53:49 40° SE
Cosmos 2058 Rocket 3.6 03:51:10 10° N 03:55:33 56° E 03:58:12 23° SSE
Cosmos 1544 3.5 03:53:07 10° NNW 03:56:06 54° NW 03:56:06 54° NW
Cosmos 2228 3.2 03:55:16 10° N 03:59:33 67° E 04:01:28 31° SSE
MOZ.5/SAFIR/RUBIN 5/SL-8 3.8 04:00:06 53° WSW 04:00:22 54° W 04:05:03 10° NNW
Cosmos 1606 Rocket 3.4 03:58:08 10° NNW 04:02:26 70° W 04:02:57 62° SW
Resurs 1-4 Rocket 2.5 03:58:28 10° N 04:03:30 47° WNW 04:04:37 40° WSW
Meteor 1-22 Rocket 4.2 03:58:37 10° NNW 04:04:38 85° W 04:08:33 22° S
Cosmos 2322 Rocket 2.8 04:00:52 10° NNW 04:06:27 57° ENE 04:11:58 10° SE
ATLAS 3B R/B 3.4 04:03:31 23° S 04:07:50 50° ESE 04:14:29 10° NE
Cosmos 1634 Rocket 4.4 04:09:34 35° WSW 04:11:23 43° WNW 04:17:21 10° N
SJ 16-02 3.5 04:10:27 10° N 04:14:17 28° ENE 04:18:06 10° ESE
Cosmos 2180 Rocket 4.5 04:11:31 28° SSW 04:15:07 81° W 04:21:34 10° N
Cosmos 1892 Rocket 3.5 04:15:29 44° SSW 04:16:48 75° W 04:21:13 10° N
Cosmos 1763 Rocket 3.5 04:14:42 32° SSW 04:17:12 81° ESE 04:22:33 10° NNE
Cosmos 1842 3.3 04:16:46 37° S 04:18:12 75° E 04:22:11 10° NNE
COSMOS 2487 3.6 04:18:57 30° WNW 04:18:57 30° WNW 04:21:55 10° N
ATLAS CENTAUR R/B 4.0 04:16:00 10° NNW 04:19:32 24° NE 04:23:13 10° E
Cosmos 1025 Rocket 4.3 04:19:50 24° WNW 04:19:50 24° WNW 04:23:20 10° NNW
deb Kosmos-1763 4.3 04:22:46 36° S 04:24:05 65° ESE 04:27:49 10° NNE
Cosmos 2279 Rocket 4.1 04:21:32 30° SW 04:24:33 57° WNW 04:30:43 10° N
Cosmos 1833 Rocket 4.1 04:23:18 20° W 04:25:29 25° NW 04:30:07 10° N
Transit 2A Rocket 4.5 04:22:46 10° NW 04:27:15 60° WSW 04:31:29 10° SSE
USA 215 3.9 04:22:06 10° ENE 04:28:21 46° SE 04:32:57 18° SSW
Cosmos 1898 Rocket 3.9 04:25:42 10° NW 04:30:32 40° WSW 04:32:40 27° SSW
Cosmos 1805 3.2 04:28:42 10° NNW 04:32:34 65° W 04:34:26 29° S
Cosmos 1953 3.3 04:29:31 10° N 04:33:30 50° ENE 04:37:27 10° SSE
Cosmos 44 3.4 04:30:03 10° NW 04:35:15 69° WSW 04:40:36 10° SSE
Cosmos 1766 3.9 04:36:13 10° NNW 04:39:45 34° W 04:40:19 33° WSW
Cosmos 1937 Rocket 3.7 04:35:51 10° NNW 04:40:47 45° WSW 04:45:29 11° S
Cosmos 1125 Rocket 4.5 04:38:16 10° NNW 04:43:28 51° ENE 04:48:36 10° SE
Aureole 2 Rocket 4.0 04:42:45 10° N 04:46:25 40° ENE 04:49:51 10° SE
Lacrosse 5 rocket 3.2 04:47:04 12° WNW 04:49:57 22° NNW 04:53:10 10° NNE
ARIANE 5 R/B 3.6 04:47:06 10° N 04:51:33 29° WNW 04:54:03 20° WSW
Okean O Rocket 3.8 04:52:09 10° NE 04:55:46 25° E 04:59:21 10° SSE
Timation 2 Rocket 4.0 04:52:40 20° SW 04:56:58 64° WNW 05:02:55 10° NNE
Cosmos 1758 3.3 04:55:48 10° NNW 04:59:43 59° W 05:03:37 10° S
Helios 1A Rocket 4.3 04:58:32 10° NNW 05:01:52 24° WNW 05:03:39 18° WSW
USA 267 4.2 04:57:52 10° E 05:04:06 49° NNE 05:10:22 10° NW
Cosmos 44 Rocket 3.5 04:59:16 10° NW 05:04:18 57° WSW 05:09:22 10° SSE
Cosmos 2266 Rocket 4.1 05:01:21 10° NNW 05:07:12 51° W 05:13:06 10° SSW
CZ-2D R/B 4.0 05:04:13 10° NNW 05:07:16 15° WNW 05:09:59 11° W
Cosmos 372 Rocket 4.0 05:02:10 10° NNW 05:07:26 86° ENE 05:12:37 10° SSE
Cosmos 1733 3.3 05:05:07 10° NNW 05:08:55 55° W 05:12:42 10° S
USA 238 DEB 3.8 05:05:08 16° SW 05:10:46 67° NW 05:17:46 10° NE
USA 238 3.8 05:05:12 16° SW 05:10:52 68° NW 05:17:51 10° NE
DNEPR-1 R/B 3.5 05:11:12 14° SW 05:14:47 88° WNW 05:19:28 10° NE
PSLV R/B 3.4 05:14:29 10° N 05:18:42 79° WNW 05:22:54 10° SSW
Cosmos 2360 Rocket 2.2 05:13:46 10° NNW 05:19:25 89° WSW 05:25:03 10° SSE
Cosmos 1980 Rocket 3.9 05:19:10 10° WNW 05:20:58 12° W 05:21:31 11° WSW
BREEZE-M R/B 3.4 05:18:18 14° WSW 05:21:20 71° NNW 05:28:22 10° ENE
Gblst 52 Del rocket 4.5 05:18:19 10° WNW 05:24:17 79° SW 05:31:10 10° SE
ADEOS II 2.8 05:23:19 10° N 05:28:08 37° WNW 05:32:55 10° SW
Cosmos 1812 Rocket 3.8 05:24:41 10° NNW 05:29:00 49° W 05:33:17 10° SSW
CZ-4B R/B 2.9 05:25:41 10° N 05:29:57 82° WNW 05:33:58 10° SSW
BREEZE-M DEB (TANK) 3.9 05:20:36 10° WNW 05:30:49 36° WSW 05:34:16 10° SSE
Cosmos 841 Rocket 4.4 05:28:29 11° WSW 05:32:57 33° WNW 05:37:41 10° N
Cosmos 2333 Rocket 4.2 05:28:08 10° N 05:33:17 34° NE 05:38:25 10° ESE
SL-16 R/B 3.0 05:29:57 10° NW 05:34:44 28° WSW 05:39:29 10° SSW
Cosmos 1470 3.4 05:31:15 10° NNW 05:34:56 36° W 05:38:35 10° SSW
Cosmos 2082 Rocket 4.5 05:34:23 10° NW 05:35:13 10° NW 05:36:03 10° NNW
Cosmos 1602 Rocket 4.3 05:31:28 10° SW 05:35:25 34° WNW 05:39:23 10° N
COSMOS 2428 3.5 05:33:09 10° NNW 05:38:46 58° ENE 05:44:21 10° SE
Cosmos 1758 Rocket 3.7 05:37:18 10° S 05:41:37 81° E 05:46:00 10° N
USA 161 1.5 05:39:37 10° S 05:42:39 84° WSW 05:45:37 10° NNW
Cosmos 1238 Rocket 4.2 05:37:05 10° SSW 05:43:37 76° W 05:50:20 10° N
Cosmos 2219 Rocket 3.5 05:41:05 10° NNW 05:46:31 47° ENE 05:51:52 10° SE
NOSS 3-2 (C) 3.5 05:41:50 10° SW 05:47:48 80° NW 05:54:30 10° NE
Cosmos 540 Rocket 4.1 05:43:43 10° SW 05:48:32 40° WNW 05:53:25 10° N
Cosmos 2322 Rocket 3.3 05:45:48 10° NW 05:50:02 22° W 05:54:16 10° SSW
Meteor 1-16 Rocket 4.2 05:46:23 10° NNW 05:52:01 66° W 05:57:26 10° S
